Tracking 29892 objects as of 21-Nov-2024
HD Live streaming from Space Station
objects crossing your sky now

STARLINK-31397

Track STARLINK-31397 now!
10-day predictions
STARLINK-31397 is classified as:


NORAD ID: 59540
Int'l Code: 2024-074G
Perigee: 449.6 km
Apogee: 452.8 km
Inclination: 43.0 °
Period: 93.5 minutes
Semi major axis: 6822 km
RCS: Unknown
Launch date: April 18, 2024
Source: United States (US)
Launch site: AIR FORCE EASTERN TEST RANGE (AFETR)
Your satellite tracking list
Your tracking list is empty




NASA's NSSDC Master Catalog

Two Line Element Set (TLE):
1 59540U 24074G   24325.91789376  .00001794  00000-0  50233-4 0  9994
2 59540  43.0035 151.5486 0002359 255.0695 104.9900 15.40688935 34583
Source of the keplerian elements: AFSPC